Dewpoint
53 53 53 53 54 54 54 54 54 55 55 55 55 54 54 55 55 56 56 56 56 56 56 56 55 55 55 55 54 55 55 52 50 49 49 44 45 53 63 62 65 65 65 56 63 60 58 56 55 54 52 57 56 53 59 61 61 61 60 57 54 54 52 52 53 50 50 54 60 62 62 62 61 62 64 66 64 65 61 61 62 63 63 63 65 66 67 67
54 54 54 54 54 54 54 55 55 55 55 55 54 54 54 55 55 55 55 56 56 56 55 55 55 55 54 54 55 55 54 52 49 48 47 47 57 58 59 63 66 67 65 49 59 56 56 53 52 51 47 51 48 53 57 57 60 58 57 55 54 52 53 52 52 52 53 53 58 60 62 60 60 60 63 62 61 61 60 60 61 62 63 64 65 66 66 66
54 54 54 54 54 54 55 54 55 55 55 55 55 55 55 55 55 55 55 55 56 56 56 55 55 55 54 54 56 56 53 49 49 46 43 61 59 62 63 63 68 69 48 40 55 54 52 52 50 48 45 45 46 47 55 52 59 58 58 53 54 54 53 56 53 52 55 56 58 59 60 59 60 61 63 60 60 60 58 59 61 62 62 63 65 65 66 66
54 54 54 54 54 55 55 55 55 55 55 55 55 55 55 55 55 55 55 55 55 56 56 55 55 55 54 55 56 55 53 50 44 40 41 58 65 62 63 65 64 68 39 35 46 54 50 52 49 45 43 43 44 45 47 50 56 57 57 56 55 55 54 53 53 52 54 56 57 58 59 58 60 61 61 60 59 59 58 60 61 62 63 63 64 65 65 66
54 54 54 55 55 54 55 55 55 55 55 55 55 55 55 55 55 55 55 55 55 55 55 55 55 55 55 57 56 51 46 30 29 43 42 73 71 66 62 64 64 58 34 29 38 47 48 48 46 43 42 42 43 43 44 48 51 52 56 57 56 55 52 54 53 52 53 56 58 58 58 57 59 60 61 60 57 57 58 60 61 63 63 64 64 65 65 65
54 54 55 55 55 55 56 56 55 55 55 55 55 55 55 55 55 55 55 55 55 55 55 55 55 55 55 56 53 52 42 21 33 37 79 72 73 69 65 63 65 53 37 30 35 42 47 44 44 41 42 42 42 42 44 45 49 48 49 51 53 54 53 54 53 53 54 55 56 56 57 58 58 58 60 60 58 59 59 60 62 63 64 64 65 65 65 65
54 54 54 55 55 55 55 55 55 55 55 55 54 55 55 55 55 55 55 55 55 56 55 55 54 55 55 57 53 51 44 34 36 35 54 63 70 71 66 63 64 50 38 29 31 43 46 43 41 39 41 42 43 43 44 45 46 47 47 49 49 49 52 52 53 53 54 54 55 56 56 56 57 57 58 59 59 59 59 61 63 64 64 64 64 65 65 65
54 54 54 54 55 55 55 55 55 55 55 55 55 55 55 55 55 55 55 55 55 56 55 55 55 54 56 52 50 47 39 29 29 32 50 73 72 68 65 58 57 49 40 29 29 42 44 43 39 40 41 41 43 43 43 44 46 45 46 47 48 49 48 49 52 52 54 54 55 52 52 53 55 56 57 58 59 59 59 62 63 64 64 64 64 64 65 65
54 54 54 54 55 55 55 55 55 55 55 55 55 55 55 54 54 55 55 55 55 55 55 55 55 56 56 52 48 37 28 40 39 38 42 67 67 63 58 55 53 46 41 35 28 38 44 43 41 40 38 41 43 43 44 43 42 45 46 47 48 49 49 47 50 52 52 53 52 50 50 52 54 54 55 57 58 59 60 62 63 64 64 64 64 65 65 65
54 54 54 55 55 55 55 55 55 55 55 55 55 54 54 55 55 55 55 55 55 55 55 55 56 56 53 52 47 24 18 36 48 63 65 64 61 56 54 55 50 44 39 38 33 32 41 42 42 41 35 40 42 42 43 44 43 46 45 46 47 48 48 48 49 52 52 52 51 49 49 50 51 52 50 56 57 59 61 62 63 63 63 64 64 64 65 65
54 54 54 54 54 54 55 55 55 55 55 55 54 54 55 55 55 54 55 55 55 56 55 56 57 56 51 50 38 24 24 39 39 38 58 59 56 54 54 55 48 41 38 37 34 31 37 39 41 40 37 33 38 40 41 42 44 43 44 45 46 46 47 47 49 51 51 51 52 50 50 50 51 51 50 54 58 59 60 61 62 63 63 63 64 64 65 65
53 53 54 54 54 54 54 55 55 55 54 54 54 54 55 55 54 54 55 55 55 56 55 57 58 55 53 49 44 32 37 44 39 39 40 58 54 53 54 54 47 40 37 36 34 32 32 35 39 38 35 35 31 37 37 41 42 43 43 43 44 45 44 42 44 50 51 50 52 51 51 50 50 49 50 57 58 59 60 61 62 62 63 63 63 63 64 65
53 54 54 54 54 54 54 55 55 55 54 53 54 54 54 54 54 54 55 56 56 55 56 58 56 54 50 37 41 40 38 38 40 44 45 42 51 52 53 53 47 42 37 35 34 33 33 34 37 36 36 35 35 33 39 42 41 42 43 43 43 43 42 41 42 49 50 49 52 51 46 47 48 50 53 58 58 58 59 60 61 62 62 62 63 63 64 65
54 54 54 54 54 54 55 55 55 54 53 54 54 52 53 54 54 56 58 58 55 57 58 58 55 53 51 42 41 46 45 45 46 48 45 45 39 37 48 53 50 43 39 34 34 34 33 33 34 36 35 33 32 33 32 35 42 41 42 43 42 42 41 41 43 48 48 49 51 50 46 46 47 49 56 58 58 58 58 59 60 61 61 62 63 63 64 64
54 54 54 54 54 54 54 54 53 53 53 54 52 53 53 52 55 58 59 57 56 59 58 57 54 51 47 46 48 49 59 57 54 51 49 42 38 39 40 51 50 47 41 37 33 34 33 32 31 30 30 33 31 30 31 34 35 36 36 35 37 40 40 38 41 48 47 48 49 48 46 46 47 48 57 58 57 57 57 58 59 60 60 61 62 63 63 63
53 54 54 54 54 54 54 53 53 53 53 52 51 52 53 54 59 58 57 57 58 59 56 53 53 52 50 44 41 50 53 46 43 47 50 44 39 36 39 48 49 47 43 38 35 33 30 29 28 28 29 31 31 32 33 33 33 32 32 35 32 34 35 33 34 46 48 48 48 47 45 47 46 48 56 57 57 57 57 57 58 59 59 60 61 62 62 63
53 53 53 54 54 54 54 53 53 53 52 52 51 51 54 57 60 59 59 59 59 58 54 52 53 53 39 42 47 42 40 41 42 29 23 46 43 39 41 45 45 45 42 38 36 32 28 26 29 28 28 28 31 33 33 32 32 32 31 31 30 30 32 31 34 40 46 47 46 47 44 44 48 48 55 57 57 57 57 57 57 58 58 59 60 60 61 62
53 53 53 54 54 54 53 53 53 53 51 51 51 51 50 55 60 59 58 57 57 55 54 53 53 50 38 45 37 32 24 22 22 20 18 16 44 42 38 40 40 43 39 36 34 29 29 25 26 22 27 27 30 33 32 32 33 33 30 30 29 31 31 31 31 34 45 46 45 46 45 44 47 48 55 57 57 57 57 57 57 57 58 58 59 59 59 61
53 54 54 54 53 53 53 53 52 51 51 51 52 53 55 57 55 50 49 51 30 26 15 45 45 19 1 7 20 22 21 21 19 18 14 20 42 42 40 39 36 38 34 32 31 29 28 30 30 28 26 28 29 31 32 33 31 31 30 30 30 28 29 30 32 34 45 45 44 44 44 44 45 48 52 57 57 57 57 57 57 57 58 58 58 59 59 59
53 54 54 53 53 53 53 52 52 51 50 48 44 43 32 23 20 23 42 26 19 18 16 15 37 33 30 26 23 20 18 18 16 15 18 23 39 40 38 37 32 35 31 30 30 28 27 25 25 24 24 28 31 33 34 33 30 31 30 30 29 29 28 29 30 34 40 43 44 43 43 44 45 48 50 56 57 57 57 57 57 57 57 58 58 58 58 59
54 53 53 52 52 52 52 52 51 50 50 47 44 24 22 22 20 18 22 21 21 21 19 19 18 17 16 16 17 17 17 19 18 18 19 24 18 38 36 34 31 29 30 30 31 32 28 24 24 23 23 29 33 35 34 30 28 27 27 29 29 29 29 30 29 30 36 37 37 43 42 42 45 48 49 53 56 56 56 57 57 57 58 58 58 58 58 58
54 53 52 52 52 52 52 52 51 50 50 46 36 24 24 25 25 24 22 19 20 22 20 20 21 18 19 19 19 19 21 19 19 19 20 19 20 29 33 32 30 28 29 30 32 32 30 25 21 23 27 33 35 34 32 31 28 27 26 27 27 27 30 29 30 30 33 35 34 38 38 39 44 47 48 51 55 56 56 57 57 57 57 58 58 58 58 58
54 53 52 52 52 51 51 51 50 50 43 41 40 34 24 27 28 28 23 21 20 21 19 20 21 20 20 22 23 24 22 19 19 20 20 23 26 28 30 30 29 29 28 30 30 31 31 30 29 25 31 34 33 33 32 29 28 27 26 26 25 27 27 27 28 29 31 34 35 37 37 39 42 47 48 50 54 55 56 57 57 57 57 58 58 58 58 58
53 54 52 52 51 51 51 50 48 42 39 41 41 33 27 30 30 25 21 19 18 20 21 21 23 21 18 19 25 23 21 22 23 20 24 23 21 30 29 29 28 27 27 29 31 30 29 29 31 32 33 33 33 33 31 30 29 28 26 26 25 26 27 27 28 27 28 28 30 31 39 39 40 44 47 49 52 54 55 56 57 57 58 58 58 58 58 58
53 53 53 51 50 50 49 48 38 38 41 41 40 32 30 36 36 25 23 21 21 22 26 26 29 27 18 25 23 17 23 24 22 23 25 24 19 22 28 29 27 26 27 28 30 30 29 30 31 31 32 33 33 32 31 30 30 30 28 26 26 27 27 27 27 26 26 26 29 30 31 33 40 42 45 48 50 51 53 55 55 56 57 58 57 57 58 59
52 52 52 51 51 50 49 32 33 40 39 35 27 29 33 36 33 29 23 21 16 19 24 17 27 20 25 18 18 21 25 23 24 22 25 23 26 21 30 27 26 25 25 27 28 29 29 29 29 30 30 31 32 32 32 30 29 28 29 28 26 26 26 26 27 27 27 26 29 34 27 28 39 39 43 47 49 50 51 53 54 55 56 57 57 57 57 58
52 52 51 50 50 49 35 29 37 40 28 24 26 32 36 36 41 32 20 20 21 19 20 18 19 18 21 17 18 17 14 15 18 22 21 29 24 20 17 24 26 25 25 28 30 26 28 27 28 29 29 29 30 31 33 31 29 28 29 27 26 26 25 26 27 27 29 33 29 29 33 29 29 37 41 45 48 49 49 51 53 54 55 56 57 58 58 58
52 51 50 49 49 49 42 42 41 37 32 28 34 36 37 39 41 27 21 6 13 18 16 17 18 22 18 17 19 16 17 18 17 19 21 22 25 20 16 20 24 24 23 26 24 26 27 26 27 27 28 28 29 31 33 32 29 30 28 27 26 25 25 25 25 26 27 28 26 28 31 28 34 35 41 44 46 47 48 49 51 53 53 55 56 58 58 58
51 50 49 50 49 48 48 44 42 38 36 36 37 40 42 42 29 24 14 5 22 19 21 17 20 20 16 18 18 18 17 18 18 20 21 23 21 17 12 14 20 22 24 25 24 28 27 27 27 27 27 26 28 30 32 33 30 31 28 28 27 26 26 25 25 26 28 28 25 27 27 25 27 37 40 44 45 45 47 48 49 51 52 54 55 57 58 59
51 50 49 49 47 45 44 45 42 41 40 39 42 44 40 28 24 21 9 2 16 11 16 17 15 14 16 16 16 19 17 17 20 22 22 21 22 18 13 26 20 20 20 25 25 28 32 35 32 27 26 28 29 29 31 33 33 32 28 27 27 27 26 30 28 28 29 24 25 25 26 26 24 29 38 43 44 45 46 48 49 50 51 53 54 56 57 58
50 49 49 49 44 44 44 35 32 36 41 44 45 37 25 24 28 19 13 11 16 15 18 16 14 15 15 16 17 19 20 18 21 22 21 21 20 27 25 11 20 20 20 20 24 28 31 34 32 29 30 29 31 30 31 32 34 33 30 29 30 29 30 29 30 31 24 22 26 25 25 25 24 27 36 43 45 46 46 46 48 49 50 51 53 55 56 58
48 48 48 48 48 49 40 33 35 42 45 45 40 26 21 17 20 15 13 21 13 14 14 14 14 14 15 17 19 19 18 18 21 22 20 19 19 26 28 26 25 18 19 18 18 25 28 31 35 34 36 29 30 30 30 31 32 33 30 31 29 27 26 24 26 24 24 23 27 25 24 23 24 25 32 38 43 45 46 46 47 49 50 51 52 54 56 57
48 47 47 49 51 48 48 44 45 46 46 45 29 25 20 18 15 22 18 15 16 16 14 16 14 14 14 18 18 20 20 19 22 22 20 19 20 25 29 28 27 25 18 19 18 22 21 29 33 34 34 35 31 29 29 29 30 32 31 29 28 26 24 23 24 22 21 25 25 24 24 22 26 24 26 34 39 45 46 46 47 49 49 50 51 53 55 57
48 47 44 48 49 48 47 49 47 47 46 38 25 24 23 16 19 25 17 15 14 17 16 14 14 15 15 17 17 20 19 21 22 22 20 19 20 26 28 28 26 25 26 22 17 20 18 20 25 32 32 35 33 31 30 30 30 31 32 29 28 27 25 23 23 21 21 23 23 22 21 23 19 25 22 29 37 42 46 47 47 49 50 50 51 52 54 56
47 44 44 46 49 47 44 42 43 48 38 24 23 25 20 18 24 18 16 15 16 17 14 15 15 15 16 16 18 21 23 21 23 21 19 20 19 27 28 27 25 25 25 23 27 26 18 19 24 30 31 33 33 34 30 30 30 31 32 32 28 27 31 24 25 20 19 20 20 19 21 24 20 30 37 26 34 39 44 46 47 48 50 50 51 51 53 55
41 39 45 45 48 35 36 36 36 37 28 23 24 23 19 22 16 19 15 17 16 15 14 14 15 15 16 16 19 19 25 23 22 19 19 20 21 29 29 27 24 25 24 23 24 26 23 17 20 29 30 30 32 33 30 29 27 29 30 29 30 26 24 26 35 31 26 22 18 27 20 20 19 18 14 28 28 36 40 43 45 46 48 50 50 51 52 55
39 42 41 44 43 34 36 36 34 33 29 27 22 21 23 26 22 18 35 15 13 16 15 13 14 17 16 16 17 17 23 23 23 18 18 20 21 27 29 29 25 24 26 24 23 28 25 25 28 27 27 29 30 32 31 28 26 27 28 29 25 26 27 25 22 24 18 16 21 19 16 15 14 18 27 18 24 28 35 40 42 44 46 47 49 51 52 54
41 42 46 48 41 35 37 35 34 30 27 24 23 34 28 19 22 15 14 15 15 15 14 16 17 19 17 16 14 16 21 21 22 20 20 20 18 21 26 28 27 24 25 26 24 27 25 25 27 26 23 23 29 27 29 28 27 25 26 24 26 23 23 25 26 20 16 15 16 19 20 21 17 21 24 16 16 19 29 37 39 42 44 46 48 50 52 54
41 42 39 37 34 37 37 36 35 31 26 22 25 28 41 14 14 15 18 19 19 16 15 19 19 21 17 16 16 18 19 18 21 23 21 20 18 21 27 29 28 27 28 26 23 24 26 27 28 28 24 28 25 27 24 24 26 26 23 25 26 23 24 23 23 26 19 19 17 13 18 15 22 14 16 15 16 16 18 37 39 38 42 46 47 49 51 53
41 36 30 36 33 38 37 36 31 26 27 21 23 26 21 15 21 19 18 19 16 17 21 21 19 18 18 19 17 18 22 22 24 25 24 22 23 26 29 31 28 27 28 27 23 24 25 34 29 30 32 29 23 24 25 24 21 22 21 21 23 25 24 23 24 18 20 23 17 14 11 20 24 24 15 15 16 16 17 36 42 40 40 44 47 49 51 53
44 40 36 34 35 39 35 33 31 28 24 28 28 29 25 22 21 22 20 19 18 23 20 19 20 19 20 18 18 20 20 22 27 27 26 24 25 25 28 30 30 30 29 26 24 25 27 32 29 30 31 28 26 27 24 25 22 20 21 21 21 20 20 19 19 20 23 20 17 13 10 21 22 23 15 14 15 14 15 31 43 44 42 43 47 48 50 52
34 18 20 29 39 36 33 32 33 32 27 31 30 31 28 36 21 22 23 21 23 21 24 20 22 21 21 21 21 21 21 28 28 27 28 27 27 26 28 32 32 31 28 26 25 26 28 31 32 30 31 30 30 29 30 31 32 25 19 19 20 20 21 21 21 20 18 17 29 24 17 17 22 22 20 16 14 12 12 21 37 45 45 44 46 48 50 52
32 27 31 40 39 35 32 32 36 34 32 32 34 32 30 24 22 24 23 22 21 25 23 23 25 23 25 25 24 20 24 24 27 29 31 29 28 30 32 33 33 32 30 27 27 26 38 33 25 26 27 28 31 32 33 33 31 26 20 19 20 19 18 19 20 23 19 22 18 18 19 17 24 39 30 20 20 16 14 20 30 41 46 46 47 48 49 51
39 39 40 42 37 35 32 31 32 32 35 35 34 33 32 29 27 24 23 23 28 24 24 24 26 27 29 27 23 22 23 21 31 29 31 31 32 34 33 32 32 32 30 28 27 29 30 32 27 25 26 23 21 26 26 27 26 24 20 18 19 20 19 20 27 28 19 17 17 18 16 16 20 46 40 39 35 24 19 17 28 35 44 47 48 49 50 52
41 42 42 41 39 34 31 33 33 34 34 33 34 33 32 31 30 29 26 25 24 22 23 24 24 25 27 27 25 25 23 24 29 32 30 31 31 34 34 32 33 32 32 33 40 36 31 30 28 24 24 20 16 17 22 32 30 28 30 24 18 18 19 18 17 21 20 27 24 18 17 20 19 28 27 27 32 32 29 17 26 33 42 46 48 50 52 53
38 32 36 34 34 34 34 35 34 34 33 32 33 33 32 31 31 32 31 24 28 26 23 31 26 27 27 26 27 24 24 30 29 29 31 29 32 34 35 33 33 32 37 41 41 33 31 32 30 28 26 25 27 29 29 30 25 24 27 27 27 17 18 17 27 22 19 27 21 22 22 20 18 15 14 17 28 31 31 24 27 36 42 47 49 51 53 54
40 33 33 31 33 34 34 34 33 35 33 33 32 33 32 32 31 32 34 28 31 29 25 24 24 25 25 25 27 25 24 25 28 29 28 28 31 32 33 35 35 36 41 38 36 31 33 29 28 30 29 28 28 27 26 28 26 25 23 23 26 28 18 17 18 17 27 21 17 29 32 19 16 16 15 19 24 33 32 25 29 39 44 47 50 52 58 54
31 34 36 36 32 31 33 32 34 35 34 34 35 36 34 31 31 31 33 34 32 31 27 29 28 29 29 27 27 25 27 27 27 27 32 31 30 32 33 35 35 39 37 33 34 30 30 28 28 28 27 28 29 29 29 28 26 25 24 25 28 31 22 16 18 22 27 18 19 29 32 25 18 15 15 22 26 34 33 26 29 39 45 49 50 51 53 54
38 38 36 39 34 35 35 35 36 36 34 34 37 36 32 32 31 32 32 32 32 30 32 27 28 30 30 30 29 26 27 25 26 31 31 30 29 31 35 35 35 38 35 34 32 32 31 29 29 29 28 28 28 28 27 26 24 25 26 30 32 32 26 16 17 25 21 27 26 26 31 24 18 24 33 35 38 38 41 45 39 43 46 49 49 51 52 53
37 38 37 41 38 37 36 36 37 35 34 36 34 35 33 32 31 32 33 32 31 31 35 31 31 31 31 30 30 27 28 29 28 27 32 29 29 34 36 35 36 40 37 34 32 31 30 29 32 29 28 28 27 27 25 24 28 31 37 39 43 32 21 15 15 26 33 31 35 30 33 32 37 38 40 42 47 48 48 46 39 40 45 48 48 50 51 53
43 47 45 40 36 36 37 38 34 34 33 34 32 32 32 31 31 33 33 34 33 32 34 33 33 33 32 30 30 30 30 30 30 29 28 28 26 33 35 38 37 34 35 34 32 32 31 30 31 30 27 26 26 24 24 29 32 34 37 37 40 47 32 27 36 51 35 31 37 35 31 32 36 41 52 59 61 62 61 59 52 46 44 47 48 49 51 52
45 49 48 43 35 38 37 37 36 36 32 35 34 32 32 31 32 34 34 35 36 36 36 35 34 33 31 30 29 29 30 29 29 29 29 28 28 28 29 31 34 34 37 37 35 32 30 30 28 29 26 25 24 25 27 32 35 36 36 37 39 49 49 50 50 51 51 51 34 31 34 40 43 53 57 59 60 60 61 62 61 54 48 47 47 49 50 52